User: anonymous   Login
Location: Unspecified
(0.0000°N, 0.0000°E)
Time: 11:59:06
(UTC+00:00)
Language:

GOMX4-A - Orbit

View from above orbital plane
View from above orbital plane
View from above satellite
View from above satellite

Ground track
Ground track

The orbit data is extracted from the following two-line orbital elements,

1 43197U 18015F   24110.13044361  .00102981  00000-0  10982-2 0  9992
2 43197  97.5977 283.8326 0008068 167.3425 192.8038 15.63584356346619
Epoch (UTC): 19 April 2024 03:07:50
Eccentricity: 0.0008068
inclination: 97.5977°
perigee height: 372 km
apogee height: 383 km
right ascension of ascending node: 283.8326°
argument of perigee: 167.3425°
revolutions per day: 15.63584356
mean anomaly at epoch: 192.8038°
orbit number at epoch: 34661

The dashed part of the orbit path shows where the satellite is in the earth's shadow,  

DLR